Stations météo

Publicité
Chartres, France (7143): Température de l'air & dewpoint: 19.09.2018 17:00:00 - 25.09.2018 17:00:00 (CEST)Chartres, France (7143): Température de l'air 5cm: 19.09.2018 17:00:00 - 25.09.2018 17:00:00 (CEST)Chartres, France (7143): Température de l'air -20cm & Température de l'air -100cm: 19.09.2018 17:00:00 - 25.09.2018 17:00:00 (CEST)Chartres, France (7143): Vitesse du vent & gusts: 19.09.2018 17:00:00 - 25.09.2018 17:00:00 (CEST)Chartres, France (7143): Direction du vent: 19.09.2018 17:00:00 - 25.09.2018 17:00:00 (CEST)Chartres, France (7143): reduced air pressure: 19.09.2018 17:00:00 - 25.09.2018 17:00:00 (CEST)Chartres, France (7143): visibility: 19.09.2018 17:00:00 - 25.09.2018 17:00:00 (CEST)Chartres, France (7143): Ensoleillement: 19.09.2018 17:00:00 - 25.09.2018 17:00:00 (CEST)Chartres, France (7143): Quantités de précipitations: 19.09.2018 17:00:00 - 25.09.2018 17:00:00 (CEST)
Date & Time tt [°C] td [°C] tt 5cm [°C] tt -20cm [°C] tt -100cm [°C] ff [km/h] ff [knt] fx [km/h] fx [knt] dd ppp [hPa] vv [km] sd [min] rr [mm]
25.09.2018 17:00:00 17,3 3,2 22,1 15,9 17,7 11 6 29 15 ENE 1034,3 20 60 0,0
25.09.2018 16:00:00 17,0 2,2 22,2 15,7 17,7 16 9 34 18 ENE 1034,7 20 60 0,0
25.09.2018 15:00:00 16,4 2,8 21,2 15,5 17,7 17 9 31 17 ENE 1035,6 20 60 0,0
25.09.2018 14:00:00 15,9 3,7 20,4 15,4 17,7 16 9 33 18 ENE 1036,3 19 60 0,0
25.09.2018 13:00:00 14,8 3,9 19,3 15,3 17,7 16 9 32 17 ENE 1036,7 20 60 0,0
25.09.2018 12:00:00 13,8 4,9 18,1 15,2 17,8 17 9 29 16 E 1037,1 20 60 0,0
25.09.2018 11:00:00 12,8 6,6 16,6 15,2 17,7 13 7 24 13 E 1037,4 20 60 0,0
25.09.2018 10:00:00 9,9 6,2 7,9 15,3 17,8 8 5 18 10 NE 1037,5 20 60 0,0
25.09.2018 09:00:00 6,8 4,9 3,3 15,5 17,8 8 5 15 8 NE 1037,3 20 53 0,0
25.09.2018 08:00:00 5,0 4,1 1,6 15,6 17,8 8 4 11 6 NNE 1037,2 20 0 0,0
25.09.2018 07:00:00 4,8 3,9 2,8 15,7 17,8 4 2 14 7 NNE 1037,0 20 0 0,0
25.09.2018 06:00:00 5,8 4,6 3,9 15,9 17,8 8 5 12 7 N 1037,2 20 0 0,0
25.09.2018 05:00:00 5,6 4,2 4,2 16,0 17,8 8 5 11 6 NNE 1037,1 20 0 0,0
25.09.2018 04:00:00 5,9 4,4 4,5 16,1 17,8 7 4 12 6 NNE 1037,2 20 0 0,0
25.09.2018 03:00:00 6,7 4,5 4,9 16,2 17,9 6 3 13 7 NNE 1037,3 20 0 0,0
25.09.2018 02:00:00 7,4 4,9 5,9 16,3 17,8 8 5 17 9 NNE 1037,4 20 0 0,0
25.09.2018 01:00:00 8,1 4,9 6,7 16,4 17,8 9 5 20 11 NNE 1037,3 20 0 0,0
25.09.2018 00:00:00 8,8 4,6 7,1 16,6 17,8 11 6 18 10 N 1037,4 20 0 0,0
24.09.2018 23:00:00 9,2 4,0 7,4 16,7 17,9 8 5 13 7 NNE 1037,3 20 0 0,0
24.09.2018 22:00:00 9,7 3,9 8,4 16,8 17,8 8 4 17 9 NNE 1036,7 20 0 0,0
24.09.2018 21:00:00 11,3 3,6 9,7 16,8 17,9 9 5 15 8 NNE 1036,3 20 0 0,0
24.09.2018 20:00:00 13,1 3,5 11,3 16,8 17,9 11 6 22 12 NNE 1035,9 20 24 0,0
24.09.2018 19:00:00 15,0 3,8 15,8 16,8 17,9 10 6 25 13 N 1035,5 20 60 0,0
24.09.2018 18:00:00 15,8 3,6 16,2 16,7 17,8 16 8 27 15 NNE 1035,4 20 45 0,0
24.09.2018 17:00:00 16,3 4,6 16,5 16,6 17,8 11 6 28 15 NNE 1035,4 20 34 0,0
24.09.2018 16:00:00 16,9 5,5 17,0 16,4 17,8 14 7 26 14 NNE 1035,7 20 35 0,0
24.09.2018 15:00:00 15,4 6,1 16,8 16,3 17,9 13 7 27 14 NNE 1035,9 20 23 0,0
24.09.2018 14:00:00 16,1 6,8 15,6 16,2 17,9 11 6 32 17 ENE 1036,2 20 39 0,0
24.09.2018 13:00:00 14,5 6,1 18,2 16,1 17,9 12 7 25 14 NE 1036,4 20 49 0,0
24.09.2018 12:00:00 13,3 7,1 19,8 16,0 17,9 13 7 28 15 NE 1036,7 20 60 0,0
24.09.2018 11:00:00 11,8 8,6 16,1 16,1 17,9 11 6 22 12 NNE 1036,6 20 60 0,0
24.09.2018 10:00:00 9,6 7,2 9,2 16,2 17,9 10 6 18 10 NNE 1036,0 20 56 0,0
24.09.2018 09:00:00 7,5 6,1 5,5 16,3 17,9 10 6 22 12 N 1035,3 20 48 0,0
24.09.2018 08:00:00 6,1 5,1 4,7 16,4 17,9 8 4 14 8 N 1034,6 20 0 0,0
24.09.2018 07:00:00 6,2 5,0 4,6 16,6 17,9 3 2 16 8 NW 1034,3 20 0 0,0
24.09.2018 06:00:00 6,3 4,8 5,2 16,7 17,9 6 3 14 7 NNW 1033,6 20 0 0,0
24.09.2018 05:00:00 6,5 4,8 5,1 16,9 17,9 8 4 13 7 NNW 1032,8 20 0 0,0
24.09.2018 04:00:00 6,6 4,9 5,2 17,0 17,9 7 4 13 7 NNW 1032,3 20 0 0,0
24.09.2018 03:00:00 6,8 5,3 5,2 17,2 17,9 6 3 13 7 NNW 1031,9 20 0 0,0
24.09.2018 02:00:00 7,1 5,7 4,6 17,3 17,9 6 3 10 6 NNW 1031,1 20 0 0,0
24.09.2018 01:00:00 7,5 6,1 5,2 17,5 17,9 5 3 10 6 NW 1030,4 20 0 0,0
24.09.2018 00:00:00 8,3 6,8 6,0 17,6 17,9 5 3 15 8 NW 1029,6 20 0 0,0
23.09.2018 23:00:00 9,2 7,1 8,4 17,8 17,9 10 6 27 15 NNW 1028,7 20 0 0,0
23.09.2018 22:00:00 9,8 7,6 8,9 17,9 17,9 11 6 40 21 NNW 1027,2 20 0 0,0
23.09.2018 21:00:00 11,1 7,4 10,3 18,0 17,9 18 10 40 21 N 1025,5 20 0 0,0
23.09.2018 20:00:00 12,3 9,7 12,0 18,1 17,9 15 8 40 22 N 1023,4 20 0 0,0
23.09.2018 19:00:00 12,7 10,1 12,8 18,1 17,9 21 11 50 27 N 1021,6 20 0 0,0
23.09.2018 18:00:00 14,0 11,9 14,4 18,1 17,9 26 14 50 27 N 1019,4 20 2 0,0
23.09.2018 17:00:00 15,6 13,8 14,8 18,1 17,9 18 10 44 24 NNW 1017,5 20 0 1,0
23.09.2018 16:00:00 15,5 14,5 15,3 18,1 17,9 19 11 50 27 NW 1016,1 8 6 5,1
23.09.2018 15:00:00 20,0 18,5 19,1 18,0 18,0 18 10 54 29 WSW 1013,7 17 1 0,2
23.09.2018 14:00:00 20,1 18,6 19,3 17,9 17,9 19 10 50 27 WSW 1014,0 10 0 0,0
23.09.2018 13:00:00 20,0 19,0 19,2 17,8 17,9 24 13 47 25 WSW 1013,8 15 0 0,4
23.09.2018 12:00:00 20,1 18,6 19,6 17,8 18,0 19 10 42 23 SW 1013,7 19 0 0,0
23.09.2018 11:00:00 20,1 18,6 19,2 17,7 18,0 20 11 40 22 SW 1013,7 20 0 0,0
23.09.2018 10:00:00 19,8 18,6 19,0 17,7 17,9 18 10 38 20 SW 1014,0 11 0 0,0
23.09.2018 09:00:00 19,4 18,2 18,6 17,7 18,0 16 9 34 19 SW 1014,1 20 0 0,0
23.09.2018 08:00:00 19,2 18,4 18,6 17,6 18,0 14 7 37 20 SW 1014,4 20 0 0,0
23.09.2018 07:00:00 19,1 18,4 18,6 17,6 18,0 16 8 35 19 SW 1014,5 13 0 0,2
23.09.2018 06:00:00 19,0 18,3 18,5 17,5 18,0 14 8 39 21 WSW 1014,7 17 0 0,0
23.09.2018 05:00:00 19,0 18,3 18,5 17,5 18,0 17 9 35 19 SW 1014,8 7 0 0,0
23.09.2018 04:00:00 18,9 18,1 18,3 17,5 18,0 16 9 32 18 SW 1015,3 19 0 0,0
23.09.2018 03:00:00 18,8 18,0 18,3 17,4 18,0 15 8 34 18 SW 1015,7 11 0 0,0
23.09.2018 02:00:00 18,7 17,7 18,0 17,5 18,0 16 9 49 26 SW 1015,9 16 0 0,0
23.09.2018 01:00:00 18,7 17,5 18,1 17,4 18,0 21 12 43 23 SW 1015,8 14 0 0,0
23.09.2018 00:00:00 18,8 17,1 18,3 17,4 18,0 19 11 45 24 WSW 1015,9 19 0 0,0
22.09.2018 23:00:00 18,4 15,8 17,0 17,4 18,0 19 10 37 20 SW 1016,0 20 0 0,0
22.09.2018 22:00:00 17,8 14,5 17,4 17,4 18,0 22 12 47 26 SW 1016,1 20 0 0,0
22.09.2018 21:00:00 18,0 11,3 17,6 17,5 18,0 21 11 49 26 SW 1016,3 20 0 0,0
22.09.2018 20:00:00 18,0 7,4 17,4 17,5 18,0 19 11 36 19 SSW 1016,4 20 0 0,0
22.09.2018 19:00:00 17,6 6,1 16,9 17,4 18,0 21 11 38 20 SSW 1016,9 20 0 0,0
22.09.2018 18:00:00 17,0 7,1 16,6 17,5 18,0 16 9 35 19 SSW 1017,9 20 0 0,0
22.09.2018 17:00:00 17,0 6,8 17,4 17,4 18,0 13 7 30 16 S 1019,2 20 0 0,0
22.09.2018 16:00:00 17,1 7,4 18,2 17,3 18,0 14 8 32 17 SSW 1020,3 20 0 0,0
22.09.2018 15:00:00 16,3 8,3 16,5 17,3 18,0 14 8 28 15 S 1021,2 20 0 0,0
22.09.2018 14:00:00 16,2 7,4 17,2 17,2 18,0 16 9 33 18 SW 1022,6 20 0 0,0
22.09.2018 13:00:00 16,8 8,2 18,5 17,1 18,0 15 8 32 17 SSW 1022,3 20 1 0,0
22.09.2018 12:00:00 16,2 8,7 17,9 17,0 18,0 14 7 25 13 SSW 1022,7 20 27 0,0
22.09.2018 11:00:00 14,6 8,1 14,1 17,0 18,0 10 5 18 10 S 1023,3 20 1 0,0
22.09.2018 10:00:00 13,0 7,9 12,4 17,1 18,0 10 5 16 9 SSW 1023,6 20 4 0,0
22.09.2018 09:00:00 11,4 7,7 10,1 17,1 18,1 4 2 8 4 SSW 1023,9 20 0 0,0
22.09.2018 08:00:00 10,5 7,2 9,8 17,2 18,1 3 2 9 5 S 1023,7 20 0 0,0
22.09.2018 07:00:00 10,9 6,8 8,9 17,3 18,0 5 3 8 5 WSW 1023,6 20 0 0,0
22.09.2018 06:00:00 10,8 6,9 8,7 17,4 18,1 0 0 9 5 N 1023,8 20 0 0,0
22.09.2018 05:00:00 10,2 6,7 8,6 17,5 18,0 6 3 12 6 S 1024,0 20 0 0,0
22.09.2018 04:00:00 10,7 6,8 9,2 17,6 18,1 5 3 7 4 SSW 1023,5 20 0 0,0
22.09.2018 03:00:00 11,5 6,4 9,5 17,7 18,0 0 0 9 5 N 1023,8 20 0 0,0
22.09.2018 02:00:00 12,0 6,1 10,9 17,8 18,0 6 3 12 7 WSW 1023,7 20 0 0,0
22.09.2018 01:00:00 12,1 5,5 8,2 17,9 18,0 5 3 12 7 WSW 1024,0 20 0 0,0
22.09.2018 00:00:00 10,9 5,0 8,1 18,0 18,1 4 2 10 5 WSW 1023,9 20 0 0,0
21.09.2018 23:00:00 11,8 5,0 10,1 18,1 18,1 7 4 12 7 WSW 1023,0 20 0 0,0
21.09.2018 22:00:00 12,8 5,0 11,5 18,2 18,0 5 3 15 8 WSW 1022,5 20 0 0,0
21.09.2018 21:00:00 14,1 4,9 12,6 18,3 18,0 7 4 21 11 W 1021,6 20 0 0,0
21.09.2018 20:00:00 15,0 4,4 13,9 18,4 18,1 9 5 25 13 WSW 1020,4 20 21 0,0
21.09.2018 19:00:00 16,4 3,1 15,9 18,4 18,0 13 7 42 23 WNW 1019,6 20 50 0,0
21.09.2018 18:00:00 17,7 3,9 18,9 18,4 18,1 14 8 41 22 W 1018,9 20 51 0,0
21.09.2018 17:00:00 18,3 3,0 20,5 18,4 18,0 19 10 40 22 W 1018,4 20 56 0,0
21.09.2018 16:00:00 18,4 5,2 19,1 18,4 18,0 14 8 36 20 WNW 1017,7 20 40 0,0
21.09.2018 15:00:00 17,6 4,5 17,5 18,3 18,0 16 9 36 19 WNW 1017,4 20 37 0,0
21.09.2018 14:00:00 16,4 6,8 17,7 18,4 18,0 14 8 39 21 NW 1016,6 20 22 0,0
21.09.2018 13:00:00 16,4 7,6 18,0 18,4 18,1 14 8 38 21 WNW 1015,9 20 37 0,0
21.09.2018 12:00:00 15,8 8,8 16,6 18,4 18,0 17 9 37 20 WNW 1015,1 20 31 0,0
21.09.2018 11:00:00 14,7 10,1 14,7 18,4 18,0 15 8 30 16 WNW 1014,1 20 15 0,0
21.09.2018 10:00:00 14,2 11,0 13,0 18,5 18,0 13 7 34 19 WNW 1012,9 20 0 0,0
21.09.2018 09:00:00 13,9 11,9 12,9 18,5 18,0 16 9 35 19 WNW 1011,8 20 0 0,2
21.09.2018 08:00:00 14,7 13,2 14,0 18,6 18,1 15 8 45 24 NW 1010,5 7 0 1,0
21.09.2018 07:00:00 17,1 15,6 15,5 18,6 18,0 19 11 41 22 SW 1008,6 13 0 0,2
21.09.2018 06:00:00 16,9 14,7 15,5 18,7 18,1 20 11 39 21 SSW 1008,2 13 0 0,2
21.09.2018 05:00:00 17,8 14,1 16,8 18,7 18,1 22 12 42 23 SW 1009,6 20 0 0,0
21.09.2018 04:00:00 17,3 14,0 16,8 18,8 18,1 17 9 31 17 SSW 1009,6 20 0 0,0
21.09.2018 03:00:00 17,7 13,8 17,0 18,9 18,0 14 8 31 17 SW 1010,0 20 0 0,0
21.09.2018 02:00:00 18,3 13,6 17,6 18,9 18,1 15 8 28 15 SW 1010,7 20 0 0,0
21.09.2018 01:00:00 18,9 14,0 18,3 19,0 18,0 16 9 34 18 WSW 1011,2 20 0 0,0
21.09.2018 00:00:00 19,5 13,9 18,5 19,0 18,0 14 7 31 17 SW 1011,3 20 0 0,0
20.09.2018 23:00:00 20,1 13,5 18,9 19,1 18,1 13 7 31 17 SSW 1011,7 20 0 0,0
20.09.2018 22:00:00 20,8 13,2 19,5 19,1 18,0 13 7 24 13 SSW 1012,2 20 0 0,0
20.09.2018 21:00:00 21,3 13,5 19,9 19,1 18,0 12 6 22 12 SSW 1012,6 20 0 0,0
20.09.2018 20:00:00 22,0 13,6 20,6 19,2 18,1 11 6 28 15 SSW 1013,3 20 0 0,0
20.09.2018 19:00:00 23,2 13,4 23,0 19,0 18,0 14 7 37 20 SSW 1013,7 20 14 0,0
20.09.2018 18:00:00 24,0 13,2 25,2 18,9 18,0 19 10 37 20 SSW 1014,3 20 55 0,0
20.09.2018 17:00:00 24,6 13,5 27,6 18,8 18,0 18 10 39 21 SW 1015,0 20 60 0,0
20.09.2018 16:00:00 24,7 13,6 28,3 18,6 18,0 20 11 36 19 SSW 1015,7 20 60 0,0
20.09.2018 15:00:00 24,3 13,8 27,3 18,4 18,1 16 9 39 21 SW 1016,5 20 58 0,0
20.09.2018 14:00:00 23,5 14,5 25,0 18,2 18,0 16 9 31 17 SSW 1017,4 20 51 0,0
20.09.2018 13:00:00 22,0 14,4 22,5 18,1 18,0 13 7 30 16 SW 1018,4 20 40 0,0
20.09.2018 12:00:00 20,2 14,3 21,9 18,0 18,1 8 4 22 12 WSW 1019,1 20 1 0,0
20.09.2018 11:00:00 19,3 15,2 20,5 17,9 18,0 10 5 16 9 SSW 1019,4 20 38 0,0
20.09.2018 10:00:00 17,0 15,3 16,8 18,0 18,1 9 5 18 10 SW 1019,7 17 17 0,0
20.09.2018 09:00:00 15,6 14,8 13,8 18,0 18,1 7 4 19 10 SSW 1019,6 9 43 0,0
20.09.2018 08:00:00 14,4 13,8 13,1 18,1 18,1 5 3 14 8 SSW 1019,7 10 0 0,0
20.09.2018 07:00:00 15,0 14,0 13,2 18,2 18,1 8 4 13 7 SW 1019,7 14 0 0,0
20.09.2018 06:00:00 14,4 13,3 13,5 18,3 18,1 7 4 20 11 SW 1019,8 16 0 0,0
20.09.2018 05:00:00 14,6 13,0 12,9 18,4 18,1 9 5 16 9 WSW 1019,9 19 0 0,0
20.09.2018 04:00:00 14,7 12,6 12,7 18,5 18,0 7 4 15 8 SSW 1019,6 20 0 0,0
20.09.2018 03:00:00 15,2 12,3 12,0 18,6 18,1 8 4 13 7 SSW 1019,6 20 0 0,0
20.09.2018 02:00:00 15,7 12,1 11,7 18,7 18,1 4 2 12 7 SW 1019,8 20 0 0,0
20.09.2018 01:00:00 15,1 12,0 11,1 18,9 18,1 4 2 10 5 SW 1020,1 20 0 0,0
20.09.2018 00:00:00 15,4 11,8 11,7 19,0 18,1 4 2 10 5 SSW 1020,3 20 0 0,0
19.09.2018 23:00:00 18,2 13,1 14,3 19,0 18,1 4 2 12 7 WSW 1020,0 20 0 0,0
19.09.2018 22:00:00 18,3 12,7 14,9 19,1 18,1 5 3 9 5 SSW 1019,7 20 0 0,0
19.09.2018 21:00:00 19,8 12,8 16,5 19,1 18,1 5 3 11 6 SW 1019,3 20 0 0,0
19.09.2018 20:00:00 22,0 12,8 19,8 19,1 18,1 6 3 23 12 SW 1019,0 20 35 0,0
19.09.2018 19:00:00 23,6 12,9 23,8 19,0 18,1 11 6 26 14 WSW 1018,8 20 44 0,0
19.09.2018 18:00:00 24,2 13,4 25,8 18,9 18,1 11 6 37 20 WSW 1018,7 20 58 0,0
19.09.2018 17:00:00 24,4 13,0 24,4 18,7 18,1 17 9 36 20 WSW 1019,0 20 50 0,0

tt = Température de l'air
td = dewpoint
tt 5cm = Température de l'air 5cm
tt -20cm = Température de l'air -20cm
tt -100cm = Température de l'air -100cm
ff = Vitesse du vent
fx = gusts
dd = Direction du vent
ppp = reduced air pressure
vv = visibility
sd = Ensoleillement
rr = Quantités de précipitations

stations d'obs. à proximité